Change the Weather History Date:

Thursday, September 18, 2014

  Actual Average Record
Temperature  
Mean Temperature 59 °F 61 °F  
Max Temperature 69 °F 69 °F 88 °F (1906)
Min Temperature 48 °F 52 °F 34 °F (1990)
Degree Days  
Heating Degree Days 6 5  
Month to date heating degree days 73 61  
Since 1 July heating degree days 93 100  
Cooling Degree Days 0 1  
Month to date cooling degree days 52 34  
Year to date cooling degree days 414 460  
Growing Degree Days 8 (Base 50)    
Moisture  
Dew Point 46 °F    
Average Humidity 66    
Maximum Humidity 83    
Minimum Humidity 48    
Precipitation  
Precipitation T in 0.14 in 2.53 in (2004)
Month to date precipitation 1.30 2.17  
Year to date precipitation 36.33 33.53  
Snow  
Snow 0.00 in 0.00 in 0.00 in (2002)
Month to date snowfall 0.0 0.0  
Since 1 July snowfall 0.0 0.0  
Since 1 September snowfall 0.0 0.0  
Snow Depth 0.00 in    
Sea Level Pressure  
Sea Level Pressure 30.02 in    
Wind  
Wind Speed 9 mph (NW)    
Max Wind Speed 14 mph    
Max Gust Speed 23 mph    
Visibility 10 miles    
Events      
T = Trace of Precipitation, MM = Missing Value Source: NWS Daily Summary

Daily Weather History Graph

Daily Weather History Graph

Search for Another Location

Airport or City:

Trip Planner

Search our weather history database for the weather conditions in past years. The results will help you decide how hot, cold, wet, or windy it might be!

Date:

Astronomy

Sep. 18, 2014 Rise Set
Actual Time 6:30 AM EDT 6:51 PM EDT
Civil Twilight 6:02 AM EDT 7:19 PM EDT
Nautical Twilight 5:29 AM EDT 7:52 PM EDT
Astronomical Twilight 4:55 AM EDT 8:26 PM EDT
Moon 1:15 AM EDT (9/18) 3:45 PM EDT (9/18)
Length of Visible Light 13h 17m
Length of Day
12h 21m
Waning Crescent, 26% of the Moon is Illuminated
Sep 18
Waning Crescent
Sep 24
New
Oct 1
First Quarter
Oct 8
Full
Oct 15
Last Quarter

Hourly Weather History & Observations

Time (EDT) Temp. Dew Point Humidity Pressure Visibility Wind Dir Wind Speed Gust Speed Precip Events Conditions
12:54 AM 53.1 °F 44.1 °F 71% 29.97 in 10.0 mi West 6.9 mph - N/A   Clear
1:54 AM 51.1 °F 43.0 °F 74% 29.97 in 10.0 mi West 8.1 mph - N/A   Clear
2:54 AM 51.1 °F 43.0 °F 74% 29.96 in 10.0 mi West 6.9 mph - N/A   Clear
3:54 AM 51.1 °F 43.0 °F 74% 29.96 in 10.0 mi West 8.1 mph - N/A   Clear
4:54 AM 50.0 °F 42.8 °F 76% 29.96 in 10.0 mi West 9.2 mph - N/A   Clear
5:54 AM 50.0 °F 43.0 °F 77% 29.97 in 10.0 mi West 8.1 mph - N/A   Clear
6:54 AM 52.0 °F 43.0 °F 71% 29.98 in 10.0 mi West 10.4 mph - N/A   Clear
7:54 AM 55.0 °F 45.0 °F 69% 30.00 in 10.0 mi WNW 11.5 mph - N/A   Clear
8:54 AM 57.9 °F 46.0 °F 65% 30.01 in 10.0 mi WNW 11.5 mph - N/A   Clear
9:54 AM 60.1 °F 46.9 °F 62% 30.01 in 10.0 mi WNW 10.4 mph - N/A   Clear
10:54 AM 63.0 °F 46.9 °F 56% 30.00 in 10.0 mi WNW 10.4 mph - N/A   Clear
11:54 AM 66.0 °F 46.9 °F 50% 30.00 in 10.0 mi NW 9.2 mph - N/A   Clear
12:54 PM 66.0 °F 46.0 °F 48% 30.00 in 10.0 mi NNW 8.1 mph 23.0 mph N/A   Scattered Clouds
1:54 PM 66.9 °F 46.0 °F 47% 29.99 in 10.0 mi West 8.1 mph - N/A   Partly Cloudy
2:54 PM 66.9 °F 46.0 °F 47% 29.99 in 10.0 mi WNW 8.1 mph - N/A   Mostly Cloudy
3:54 PM 66.9 °F 48.0 °F 51% 29.99 in 10.0 mi WNW 8.1 mph - N/A   Partly Cloudy
4:54 PM 66.0 °F 48.9 °F 54% 30.01 in 10.0 mi NW 9.2 mph - N/A   Mostly Cloudy
5:54 PM 62.1 °F 51.1 °F 67% 30.03 in 10.0 mi WNW 6.9 mph - 0.00 in   Overcast
6:54 PM 62.1 °F 50.0 °F 65% 30.03 in 10.0 mi NNW 5.8 mph - N/A   Overcast
7:54 PM 61.0 °F 48.0 °F 62% 30.06 in 10.0 mi North 10.4 mph - N/A   Overcast
8:54 PM 57.9 °F 48.0 °F 70% 30.09 in 10.0 mi North 9.2 mph - N/A   Scattered Clouds
9:54 PM 55.0 °F 48.0 °F 77% 30.11 in 10.0 mi North 6.9 mph - N/A   Partly Cloudy
10:54 PM 52.0 °F 46.9 °F 83% 30.13 in 10.0 mi NE 6.9 mph - N/A   Clear
11:54 PM 50.0 °F 43.0 °F 77% 30.15 in 10.0 mi NNE 6.9 mph - N/A   Mostly Cloudy